Cloud_Cover
60 1 19 80 100 78 12 0 0 0 0 0 0 0 0 0 0 0 9 18 9 52 86 98 90 66 26 25 14 11 0 0 0 0 0 0 0 0 0 0 0 0 0
44 7 91 95 35 1 0 0 0 0 0 0 0 0 0 0 0 0 0 0 0 2 10 81 86 31 24 11 22 20 14 15 0 0 0 0 0 0 0 0 0 0 0
73 5 6 10 5 5 0 0 2 2 2 0 2 0 0 0 0 0 0 0 0 0 0 0 0 0 0 0 0 28 42 38 14 0 0 0 0 0 0 0 0 0 0
100 47 5 5 5 5 5 5 31 5 5 2 4 0 0 0 0 0 0 0 0 0 0 0 0 0 0 0 0 0 0 4 1 0 0 0 15 0 34 2 0 0 0
96 13 5 5 5 5 5 5 53 93 22 6 47 3 1 2 0 0 2 1 2 0 0 0 1 0 0 0 0 0 0 0 0 2 0 0 0 12 0 0 0 0 0
10 5 5 5 5 5 5 5 53 98 84 100 100 5 0 0 0 0 0 0 0 0 1 0 0 0 0 0 0 0 0 0 0 0 0 0 0 10 0 0 0 0 0
5 5 5 5 5 5 5 100 70 12 89 49 5 0 0 0 0 0 0 0 0 0 0 0 0 0 0 0 0 0 0 0 0 0 0 0 10 0 18 8 0 4 1
5 4 5 5 5 14 90 89 88 18 5 5 3 0 0 0 0 0 0 0 0 0 0 0 0 0 0 0 0 0 0 0 0 0 0 0 0 0 11 0 0 0 3
1 4 5 49 5 83 85 58 4 5 5 5 5 0 0 0 0 0 0 0 0 0 0 0 0 0 0 0 0 0 0 0 0 0 0 0 0 0 0 0 0 0 0
3 5 5 41 6 7 86 1 1 5 5 5 2 4 4 0 0 0 0 0 0 0 0 0 0 0 0 0 0 0 0 0 0 0 0 0 0 0 0 0 0 0 0
5 5 5 5 5 5 0 0 0 3 2 0 3 3 5 0 0 0 0 0 0 0 0 0 0 0 0 0 0 0 0 0 0 0 0 0 0 0 0 0 0 0 0
5 5 0 5 5 3 2 0 4 5 2 0 0 2 4 0 0 0 0 0 0 0 0 0 0 0 0 0 0 0 0 0 0 0 0 0 0 2 26 13 36 11 0
0 0 4 5 5 5 0 0 1 4 2 0 0 0 0 0 1 0 5 0 5 0 0 0 0 0 0 0 0 0 0 0 0 2 0 0 0 2 79 100 100 51 78
5 5 4 0 0 0 0 0 0 5 0 5 5 5 3 0 4 5 1 6 5 5 5 0 0 0 0 0 0 0 0 0 0 0 0 0 0 0 11 100 100 92 37
5 5 5 3 0 1 5 5 3 5 5 5 5 5 5 2 5 6 23 13 5 5 5 0 0 0 0 0 0 0 0 0 0 0 0 0 0 0 28 84 97 100 100
7 7 5 5 5 5 5 5 5 5 5 5 5 5 5 5 19 51 5 5 5 3 0 0 0 0 0 0 0 0 0 0 0 0 0 0 0 0 0 6 22 48 23
29 49 11 16 5 14 5 5 5 5 17 42 6 5 5 5 63 22 5 5 2 0 0 0 0 0 0 0 0 0 0 0 0 0 0 0 0 0 0 0 0 0 2
60 71 24 14 5 5 5 5 18 60 46 70 9 8 25 22 60 25 5 5 0 0 0 0 0 0 0 0 0 0 0 0 0 0 0 0 0 0 0 0 0 0 0
5 8 57 36 5 5 5 34 94 50 40 9 10 5 17 44 12 3 0 0 0 0 0 0 0 0 0 0 0 0 0 0 0 0 0 0 0 0 2 0 5 2 0
57 27 5 5 5 5 5 50 18 36 59 23 51 62 75 11 4 0 0 0 0 0 0 0 0 0 0 0 0 0 0 0 0 0 0 0 2 4 2 5 78 29 4
100 96 5 5 5 5 5 5 5 5 5 22 76 58 16 5 4 0 0 0 0 0 0 0 0 0 0 0 0 0 0 0 0 0 0 0 0 50 22 0 20 52 7
100 61 5 4 5 5 5 7 71 27 75 82 57 9 5 5 1 0 0 0 0 0 0 0 0 0 0 0 0 0 0 2 4 5 3 0 0 1 83 28 3 4 5
39 18 5 5 5 5 5 11 29 99 99 47 5 2 0 0 0 0 0 0 0 0 0 0 0 0 0 0 0 0 0 0 0 0 2 5 1 3 0 34 5 0 0
35 12 94 67 37 6 5 5 5 36 8 5 1 0 0 0 0 0 0 0 0 0 0 0 0 0 0 0 0 0 0 0 0 0 0 0 0 0 0 0 3 0 0
94 99 95 93 89 18 5 4 0 0 4 0 0 0 0 0 0 0 0 0 0 0 0 0 0 0 0 0 0 0 0 0 0 0 0 0 0 0 0 0 0 0 0
84 100 98 40 15 5 5 0 0 0 0 0 0 0 0 0 0 0 0 0 0 0 0 0 0 0 0 0 0 0 0 0 0 0 5 0 0 0 0 0 0 0 0